Flag for Isle of Man Weather past 2 weeks in Douglas, Isle of Man

Now
48 °F

Passing clouds.


Feels Like: 44 °F
Forecast: 44 / 50 °F
Wind: 10 mph from Southwest

Location: Isle Of Man / Ronaldsway Airport


UV Index: 3 (Moderate)

Visibility: N/A


Pressure: 30.27 "Hg

Humidity: 87%

Dew point: 45 °F

Location of DouglasLocation

Historic Weather in Douglas

°F

Douglas temperature yesterday

Maximum temperature yesterday: 54 °F (at 3:50 PM)
Minimum temperature yesterday: 39 °F (at 2:50 AM)
Average temperature yesterday: 48 °F

Past Weeks' High & Low Weather Summary

 TemperatureHumidityPressure
High55 °F (Apr 10, 2:50 PM)100% (Apr 1, 6:20 AM)30.39 "Hg (Apr 1, 6:20 AM)
Low39 °F (Apr 11, 4:50 AM)47% (Apr 14, 3:20 PM)29.53 "Hg (Apr 2, 5:50 PM)
Average49 °F86%29.93 "Hg
* Reported Apr 1 6:20 AM — Apr 16 6:20 AM, Douglas, Weather by CustomWeather, © 2014

Note: Actual official high and low records may vary slightly from our data, if they occured in-between our weather recording intervals... More about our weather records

Advertising

Historic Weather Conditions — Data for Previous 24 hours

 ConditionsComfort  
Time TempWeatherWind HumidityBarometerVisibility
6:20 AM
Apr 16
48 °FClear.10 mph82%30.27 "Hg10 mi
5:50 AM46 °FClear.9 mph82%30.27 "Hg10 mi
5:20 AM45 °FPassing clouds.7 mph87%30.27 "HgN/A
4:50 AM43 °FPassing clouds.5 mph87%30.30 "HgN/A
3:50 AM41 °FPassing clouds.6 mph87%30.30 "HgN/A
2:50 AM41 °FClear.6 mph87%30.30 "Hg10 mi
12:50 AM43 °FClear.5 mph87%30.30 "Hg10 mi
11:50 PM
Apr 15
43 °FClear.5 mph87%30.33 "Hg10 mi
10:50 PM46 °FClear.1 mph82%30.33 "Hg10 mi
9:50 PM46 °FClear.6 mph82%30.33 "Hg10 mi
8:50 PM46 °FPassing clouds.8 mph82%30.33 "HgN/A
8:20 PM46 °FSunny.7 mph82%30.33 "Hg10 mi
7:50 PM48 °FSunny.9 mph76%30.33 "Hg10 mi
7:20 PM50 °FSunny.10 mph71%30.33 "Hg10 mi
6:50 PM52 °FSunny.12 mph67%30.33 "Hg10 mi
6:20 PM52 °FPassing clouds.10 mph67%30.33 "HgN/A
5:50 PM54 °FPassing clouds.10 mph67%30.33 "HgN/A
5:20 PM54 °FSunny.8 mph63%30.36 "Hg10 mi
4:50 PM54 °FSunny.7 mph67%30.36 "Hg10 mi
4:20 PM54 °FSunny.8 mph72%30.36 "Hg10 mi
3:50 PM54 °FSunny.6 mph72%30.36 "Hg10 mi
3:20 PM52 °FPassing clouds.9 mph77%30.39 "HgN/A
2:50 PM52 °FPassing clouds.9 mph72%30.39 "HgN/A
2:20 PM52 °FPassing clouds.10 mph77%30.39 "HgN/A
1:50 PM52 °FPassing clouds.9 mph77%30.39 "HgN/A
1:20 PM52 °FScattered clouds.9 mph77%30.39 "HgN/A
12:50 PM52 °FPartly sunny.9 mph77%30.39 "HgN/A
12:20 PM50 °FPartly sunny.7 mph82%30.39 "HgN/A
11:50 AM52 °FPartly sunny.7 mph72%30.39 "HgN/A
11:20 AM52 °FPartly sunny.6 mph67%30.39 "HgN/A
10:50 AM50 °FPartly sunny.6 mph76%30.39 "HgN/A
10:20 AM50 °FScattered clouds.5 mph82%30.39 "HgN/A
9:50 AM50 °FScattered clouds.6 mph82%30.39 "HgN/A
9:20 AM50 °FScattered clouds.6 mph82%30.39 "HgN/A
8:50 AM48 °FPassing clouds.7 mph87%30.39 "HgN/A
8:20 AM48 °FPassing clouds.7 mph82%30.39 "HgN/A
7:50 AM46 °FPassing clouds.8 mph87%30.39 "HgN/A
7:20 AM46 °FPassing clouds.8 mph93%30.39 "HgN/A
Weather by CustomWeather, © 2014

See weather overview